STARLINK-5722 (55610 NORAD) Tracking and Keplerian Element Data

This shows tracking and keplerian element data for the satellite.

Feedback or suggestion? Click here.




ElementValue
Catalog55610
NameSTARLINK-5722
Epoch Orbit660
Epoch Day85.25001157
Epoch Year2023
RAAN103.8471
Inclination42.998
Eccentricity0.0001283
Argument of Perigee268.1922
Mean Anonmoly103.5842
Mean Motion15.48931478
Decay Rate-0.00055945
L11 55610U 23020AT 23085.25001157 -.00055945 00000+0 -10121-2 0 9999
L22 55610 42.9980 103.8471 0001283 268.1922 103.5842 15.48931478 6604



Live tracking and technical data element details for STARLINK-5722 (NORAD 55610). STARLINK-5722 can be tracked NOW for your location showing map with azimuth and elevation plus other details from your city location.







IsCatalogInMostPopularTable: catalog: 55610, numindb: 1
Update: records affected: 1



GetName: 55610 STARLINK-5722

Hit Count: updated at: Tue, 28 Mar 2023 03:28:14 GMT